Manitowoc, WI

5:00 AM CDT on August 26, 2016 (GMT -0500)
Manitowoc County

Weather History for KMTW - April, 2014

Change the Weather History Date:

Sunday, April 13, 2014

  Actual Average Record
Temperature  
Mean Temperature 41 °F -  
Max Temperature 45 °F 51 °F 75 °F (1977)
Min Temperature 37 °F 33 °F 19 °F (1950)
Degree Days  
Heating Degree Days 24    
Moisture  
Dew Point 39 °F    
Average Humidity 95    
Maximum Humidity 100    
Minimum Humidity 87    
Precipitation  
Precipitation 1.71 in - - ()
Sea Level Pressure  
Sea Level Pressure 29.75 in    
Wind  
Wind Speed 7 mph (NNE)    
Max Wind Speed 20 mph    
Max Gust Speed 38 mph    
Visibility 6 miles    
Events Rain , Thunderstorm    
Averages and records for this station are not official NWS values.
T = Trace of Precipitation, MM = Missing Value Source: NWS Daily Summary

Daily Weather History Graph

Daily Weather History Graph

Search for Another Location

Airport or City:

Trip Planner

Search our weather history database for the weather conditions in past years. The results will help you decide how hot, cold, wet, or windy it might be!

Date:

Astronomy

Apr. 13, 2014 Rise Set
Actual Time 6:10 AM CDT 7:32 PM CDT
Civil Twilight 5:40 AM CDT 8:02 PM CDT
Nautical Twilight 5:04 AM CDT 8:38 PM CDT
Astronomical Twilight 4:26 AM CDT 9:17 PM CDT
Moon 6:07 PM CDT (4/13) 5:12 AM CDT (4/13)
Length of Visible Light 14h 21m
Length of Day
13h 21m
Waxing Gibbous, 97% of the Moon is Illuminated
Apr 13
Waxing Gibbous
Apr 15
Full
Apr 22
Last Quarter
Apr 29
New
May 6
First Quarter

Hourly Weather History & Observations

Time (CDT) Temp. Windchill Dew Point Humidity Pressure Visibility Wind Dir Wind Speed Gust Speed Precip Events Conditions
12:56 AM 41.0 °F 36.4 °F 39.9 °F 96% 29.82 in 5.0 mi North 6.9 mph - 0.02 in Rain Light Rain
1:25 AM 39.2 °F 37.0 °F 39.2 °F 100% 29.73 in 4.0 mi NNE 3.5 mph - 0.02 in Rain , Thunderstorm Rain
1:40 AM 39.2 °F - 39.2 °F 100% 29.73 in 3.0 mi Calm Calm - 0.06 in Rain Rain
1:56 AM 41.0 °F 37.1 °F 39.9 °F 96% 29.78 in 2.5 mi NE 5.8 mph - 0.12 in Rain Rain
2:04 AM 39.2 °F 35.9 °F 39.2 °F 100% 29.69 in 1.8 mi Variable 4.6 mph - 0.04 in Rain , Thunderstorm Thunderstorms and Rain
2:09 AM 41.0 °F - 39.2 °F 93% 29.71 in 3.0 mi Calm Calm - 0.05 in Rain , Thunderstorm Thunderstorms and Rain
2:30 AM 41.0 °F 39.0 °F 39.2 °F 93% 29.70 in 3.0 mi North 3.5 mph - 0.10 in Rain Rain
2:41 AM 41.0 °F 38.0 °F 39.2 °F 93% 29.71 in 2.5 mi NW 4.6 mph - 0.14 in Rain , Thunderstorm Rain
2:53 AM 41.0 °F 37.1 °F 39.2 °F 93% 29.71 in 4.0 mi NW 5.8 mph - 0.19 in Rain , Thunderstorm Rain
2:56 AM 41.0 °F 36.4 °F 39.9 °F 96% 29.80 in 4.0 mi WNW 6.9 mph - 0.20 in Rain Rain
3:33 AM 41.0 °F 35.8 °F 41.0 °F 100% 29.72 in 5.0 mi North 8.1 mph - 0.17 in Rain , Thunderstorm Rain
4:56 AM 41.0 °F 37.1 °F 41.0 °F 100% 29.76 in 1.8 mi NNE 5.8 mph - 0.24 in Rain Rain
5:06 AM 41.0 °F 37.1 °F 41.0 °F 100% 29.66 in 3.0 mi ENE 5.8 mph - 0.02 in Rain Light Rain
5:17 AM 41.0 °F 36.4 °F 39.2 °F 93% 29.63 in 2.5 mi North 6.9 mph - 0.02 in Rain Light Rain
5:32 AM 41.0 °F 35.2 °F 41.0 °F 100% 29.67 in 5.0 mi NW 9.2 mph - 0.02 in Rain Light Rain
5:56 AM 41.0 °F 38.0 °F 39.9 °F 96% 29.77 in 8.0 mi NNW 4.6 mph - 0.03 in Rain Light Rain
6:31 AM 39.2 °F 30.2 °F 39.2 °F 100% 29.71 in 10.0 mi NNW 17.3 mph 25.3 mph 0.00 in Rain Light Rain
6:56 AM 37.9 °F 29.6 °F 37.0 °F 97% 29.78 in 8.0 mi NNW 13.8 mph 25.3 mph 0.01 in Rain Light Rain
7:34 AM 39.2 °F 33.0 °F 39.2 °F 100% 29.73 in 10.0 mi NNW 9.2 mph - 0.00 in   Overcast
7:56 AM 39.9 °F 34.5 °F 39.0 °F 97% 29.82 in 5.0 mi NW 8.1 mph - 0.00 in   Overcast
8:23 AM 39.2 °F 35.9 °F 37.4 °F 93% 29.75 in 9.0 mi NNE 4.6 mph - N/A   Overcast
8:56 AM 39.0 °F 36.8 °F 37.9 °F 96% 29.84 in 6.0 mi NW 3.5 mph - N/A   Overcast
9:52 AM 41.0 °F 36.4 °F 39.2 °F 93% 29.78 in 2.0 mi NNW 6.9 mph - N/A   Overcast
9:56 AM 41.0 °F 36.4 °F 39.9 °F 96% 29.85 in 2.5 mi North 6.9 mph - N/A   Overcast
10:18 AM 41.0 °F 35.2 °F 39.2 °F 93% 29.75 in 5.0 mi North 9.2 mph - N/A   Overcast
10:56 AM 41.0 °F 35.8 °F 39.9 °F 96% 29.83 in 8.0 mi North 8.1 mph - N/A   Overcast
11:56 AM 44.1 °F 40.8 °F 42.1 °F 93% 29.88 in 4.0 mi North 5.8 mph - N/A   Overcast
12:56 PM 45.0 °F 41.8 °F 43.0 °F 93% 29.87 in 10.0 mi North 5.8 mph - N/A   Overcast
1:34 PM 44.6 °F 43.1 °F 42.8 °F 93% 29.79 in 10.0 mi SE 3.5 mph - N/A   Overcast
1:56 PM 39.9 °F 33.9 °F 39.0 °F 97% 29.88 in 8.0 mi SE 9.2 mph - N/A   Overcast
2:44 PM 39.2 °F 34.2 °F 39.2 °F 100% 29.79 in 5.0 mi East 6.9 mph - N/A   Overcast
2:56 PM 41.0 °F 37.1 °F 39.0 °F 93% 29.86 in 7.0 mi East 5.8 mph - N/A   Overcast
3:56 PM 42.1 °F 38.4 °F 39.9 °F 92% 29.83 in 9.0 mi NE 5.8 mph - N/A   Overcast
4:56 PM 42.1 °F 36.1 °F 39.0 °F 89% 29.83 in 10.0 mi ENE 10.4 mph - N/A   Overcast
5:16 PM 41.0 °F 36.4 °F 37.4 °F 87% 29.75 in 10.0 mi NE 6.9 mph - 0.00 in Rain Light Rain
5:56 PM 39.9 °F 35.1 °F 39.0 °F 97% 29.80 in 10.0 mi ENE 6.9 mph - 0.02 in Rain Light Rain
6:29 PM 39.2 °F 35.9 °F 39.2 °F 100% 29.71 in 6.0 mi East 4.6 mph - 0.03 in Rain Rain
6:56 PM 41.0 °F 36.4 °F 39.0 °F 93% 29.77 in 4.0 mi NE 6.9 mph - 0.11 in Rain Rain
7:22 PM 41.0 °F 36.4 °F 39.2 °F 93% 29.69 in 5.0 mi NNE 6.9 mph - 0.06 in Rain Rain
7:34 PM 41.0 °F 35.8 °F 39.2 °F 93% 29.67 in 5.0 mi NNE 8.1 mph - 0.09 in Rain Rain
7:50 PM 42.8 °F 36.2 °F 39.2 °F 87% 29.66 in 7.0 mi NE 12.7 mph 18.4 mph 0.12 in Rain Rain
7:56 PM 42.1 °F 35.7 °F 41.0 °F 96% 29.74 in 8.0 mi NE 11.5 mph 18.4 mph 0.14 in Rain Rain
8:56 PM 42.1 °F 33.9 °F 39.9 °F 92% 29.70 in 5.0 mi NE 17.3 mph 25.3 mph 0.28 in Rain Rain
9:12 PM 42.8 °F 34.8 °F 39.2 °F 87% 29.65 in 6.0 mi NE 17.3 mph 23.0 mph 0.07 in Rain Rain
9:56 PM 39.9 °F 31.8 °F 37.9 °F 93% 29.70 in 6.0 mi NNE 15.0 mph 29.9 mph 0.24 in Rain Rain
10:56 PM 39.0 °F 29.6 °F 37.0 °F 93% 29.64 in 6.0 mi NNE 18.4 mph 38.0 mph 0.17 in Rain Rain
11:31 PM 39.2 °F 29.6 °F 37.4 °F 93% 29.56 in 6.0 mi NNE 19.6 mph 33.4 mph 0.09 in Rain Rain
11:56 PM 39.9 °F 32.1 °F 37.9 °F 93% 29.64 in 9.0 mi North 13.8 mph 23.0 mph 0.13 in Rain Rain